Location: Unspecified
(0.0000°N, 0.0000°E)
Time: 19:59:11
(UTC+00:00)

NOAA 15 - Visible Passes

Search period start: 10 August 2020 00:00
Search period end: 20 August 2020 00:00
Orbit: 797 x 813 km, 98.7° (Epoch: 10 August)

Date Brightness Start Highest point End Pass type
(mag) Time Alt. Az. Time Alt. Az. Time Alt. Az.
10 Aug 5.2 19:26:11 10° S 19:31:23 58° WSW 19:36:33 10° NNW visible
11 Aug 4.5 19:01:04 10° SSE 19:06:21 71° ENE 19:11:34 10° N visible
12 Aug 5.2 18:36:30 10° SE 18:41:17 35° ENE 18:46:01 10° NNE visible
12 Aug 7.3 20:17:54 10° SW 20:20:45 15° WSW 20:23:36 10° WNW visible
13 Aug 6.4 19:51:11 10° SSW 19:55:43 29° WSW 20:00:15 10° NW visible
14 Aug 5.1 19:25:29 10° S 19:30:41 59° WSW 19:35:51 10° NNW visible
15 Aug 4.5 19:00:22 10° SSE 19:05:38 69° ENE 19:10:51 10° N visible
16 Aug 5.3 18:35:51 10° SE 18:40:35 34° ENE 18:45:16 10° NNE visible
16 Aug 7.3 20:17:07 10° SW 20:20:03 15° WSW 20:22:58 10° WNW visible
17 Aug 6.3 19:50:28 10° SSW 19:55:01 30° WSW 19:59:34 10° NW visible
18 Aug 5.1 19:24:47 10° S 19:29:59 61° WSW 19:35:09 10° NNW visible
19 Aug 4.5 18:59:41 10° SSE 19:04:56 67° ENE 19:10:08 10° N visible
